HUBBLE
1 20580U 90037B 08198.94448316 .00000275 00000-0 83767-5 0 01980
2 20580 028.4673 129.1303 0003466 338.8903 021.1541 15.00392806799451
PO-34
1 25520U 98064B 08199.58663522 .00000337 00000-0 68222-5 0 387
2 25520 028.4601 335.2537 0005529 251.7237 108.2745 15.17210546537782
ISS
1 25544U 98067A 08198.84913194 .00007081 00000-0 50499-4 0 08711
2 25544 051.6411 223.8339 0009657 022.5100 346.0819 15.75101431553201
CO-58
1 28895U 05043F 08199.41901770 .00000091 00000-0 28831-4 0 717
2 28895 098.0967 092.7073 0017215 318.4508 041.5391 14.59683204144897
NCUBE2
1 28897U 05043H 08199.24292736 .00000058 00000-0 21840-4 0 6021
2 28897 098.0931 092.4627 0016830 320.4834 039.5135 14.59854487137156
FCAL
1 29667U 06055J 08146.34060426 .11864717 12752-4 73624-4 0 9790
2 29667 051.6107 065.3702 0009039 260.8350 099.5042 16.53464210 82911
FALCON
1 30776U 07006E 08199.79868400 .00000209 00000-0 18280-4 0 3566
2 30776 035.4354 327.8386 0002086 299.3326 060.7181 15.03020163 74753
MAST
1 31126U 07012K 08198.22420802 .00000146 00000-0 44007-4 0 03779
2 31126 098.0373 261.4971 0093672 241.7907 117.3807 14.53434845066237
CAPE1
1 31130U 07012P 08198.96214997 -.00000027 00000-0 49136-5 0 03566
2 31130 098.0375 261.1463 0101499 242.3542 116.7314 14.51976242066041
CUTE1-7
1 32785U 08021C 08198.23182005 .00000363 00000-0 53240-4 0 01096
2 32785 097.9925 258.0801 0016017 044.5720 315.6777 14.81376785011704
COMPASS
1 32787U 08021E 08198.22905999 .00000275 00000-0 41969-4 0 00942
2 32787 097.9877 258.0386 0016893 046.0766 314.1837 14.81434913011708
AAUSAT2
1 32788U 08021F 08198.89867114 .00000225 00000-0 35538-4 0 01044
2 32788 097.9872 258.7168 0016755 047.6829 312.5794 14.81544013011801
DO-64
1 32789U 08021G 08198.90544276 .00000125 00000-0 22779-4 0 01141
2 32789 097.9901 258.7407 0016639 044.5300 315.7241 14.81429221011807
SEEDS
1 32791U 08021J 08198.43916506 .00000181 00000-0 30092-4 0 00981
2 32791 097.9913 258.2607 0017212 044.0520 316.2067 14.81292219011703
CANX-2
1 32797U 08021L 08198.82301191 .00001469 00000-0 19227-3 0 478
2 32797 097.9975 258.7216 0017745 050.5655 309.7120 14.81840117 10476
RS-30
1 32953U 08025A 08198.78871280 .00000010 00000-0 00000-0 0 00592
2 32953 082.5019 105.1851 0017977 187.5554 172.5254 12.42996798006724
